Regional Weather Roundup
Issued by NWS Sterling, VA

Home | Current Version | Previous Version | Text Only | Print | Product List | Glossary Off
Versions: 1 2 3 4 5 6 7 8 9 10 11 12 13 14 15 16 17 18 19 20 21 22 23 24 25 26 27 28 29 30 31 32 33 34 35 36 37 38 39 40 41 42 43 44 45 46 47 48 49 50

000
ASUS41 KLWX 041510
RWRLWX

REGIONAL WEATHER ROUNDUP
NATIONAL WEATHER SERVICE BALTIMORE MD/WASHINGTON DC
1100 AM EDT TUE AUG 04 2015

Note: "FAIR" indicates few or no clouds below 12,000 feet
with no significant weather and/or obstructions to visibility.
 TC=TEMPERATURE CELSIUS

 * =Non NWS site. Station does not report precipitation (e.g. rain,
    snow, etc.), thunder, or fog.

DCZ001-MDZ009-015-VAZ040>042-051-053>054-041600-
WASHINGTON METRO

CITY           SKY/WX    TMP DP  RH WIND       PRES   REMARKS
WASHINGTON NAT MOSUNNY   89  66  46 W7        29.94S HX  91
DULLES         SUNNY     83  66  56 CALM      29.95S
ANDREWS AFB    SUNNY     85  66  52 W9        29.94R
FT BELVOIR     SUNNY     85  68  56 S6        29.94R
QUANTICO         N/A     83  71  67 S9        29.94R
COLLEGE PARK*  SUNNY     84  66  54 W5        29.93S
LEESBURG*      MOSUNNY   84  72  65 SW8       29.95F
MANASSAS*      SUNNY     84  70  61 S3        29.94S
GAITHERSBURG*  SUNNY     81  70  69 NW7       29.98S

$$

MDZ006>007-011-014-041600-
BALTIMORE METRO

CITY           SKY/WX    TMP DP  RH WIND       PRES   REMARKS
BWI AIRPORT    MOSUNNY   83  68  60 W9        29.92S
MD SCIENCE CTR   N/A     84  67  56 MISG      29.92S
MARTIN STATE   SUNNY     82  72  69 W6        29.94R
ANNAPOLIS      SUNNY     83  64  52 NW8       29.93R
FORT MEADE*    SUNNY     82  68  61 W7        29.95S

$$

MDZ012-015-019>023-041600-
MARYLAND EASTERN SHORE

CITY           SKY/WX    TMP DP  RH WIND       PRES   REMARKS
OCEAN CITY     SUNNY     88  72  58 W16       29.93R HX  94
SALISBURY      SUNNY     85  74  69 SW10      29.93S HX  92
BAY BRIDGE AP*   N/A     82  64  54 SW6       29.93R
CAMBRIDGE*     SUNNY     82  70  65 SW8       29.92S
EASTON*        MOSUNNY   86  73  66 SW7       29.97R HX  93

$$

MDZ017>025-041600-
SOUTHERN MARYLAND

CITY           SKY/WX    TMP DP  RH WIND       PRES   REMARKS
PATUXENT RIVER MOSUNNY   85  71  63 W9        29.94R HX  90
ST INIGOES     NOT AVBL
LEONARDTOWN*   SUNNY     82  70  65 SW7       29.96S

$$

MDZ003>005-041600-
NORTH CENTRAL MARYLAND

CITY           SKY/WX    TMP DP  RH WIND       PRES   REMARKS
FREDERICK*     SUNNY     82  70  65 W7G16     29.97R
HAGERSTOWN APT SUNNY     82  59  45 W12       29.95S
WESTMINSTER*   SUNNY     79  70  73 W10       29.95S

$$

MDZ501>502-041600-
WESTERN MARYLAND

CITY           SKY/WX    TMP DP  RH WIND       PRES   REMARKS
OAKLAND*       SUNNY     70  63  78 W6        30.07S
CUMBERLAND*    SUNNY     82  54  36 W12       30.00S

$$

VAZ025>031-041600-
SHENANDOAH VALLEY

CITY           SKY/WX    TMP DP  RH WIND       PRES   REMARKS
WINCHESTER*    MOSUNNY   84  64  51 SW8       29.96S
FRONT ROYAL*   FAIR      82  64  54 S3        29.95S
LURAY*         FAIR      88  64  45 SW8       29.98R
NEW MARKET*    FAIR      83  64  53 SW6       29.96S
STAUNTON*      SUNNY     87  60  40 W9        30.02S
WAYNESBORO*    FAIR      81  60  49 W6        30.02S

$$

WVZ021-048>050-054>055-041600-
EASTERN WEST VIRGINIA PANHANDLE

CITY           SKY/WX    TMP DP  RH WIND       PRES   REMARKS
MARTINSBURG    SUNNY     82  66  58 W9        29.96R
PETERSBURG*    MOSUNNY   81  64  56 W6        29.98S

$$

VAZ036>039-050-041600-
CENTRAL FOOTHILLS

CITY           SKY/WX    TMP DP  RH WIND       PRES   REMARKS
CHARLOTTESVILL SUNNY     85  61  44 SW7       29.97S
CULPEPER*      SUNNY     83  68  60 SW3       29.96S
ORANGE*        SUNNY     86  68  54 CALM      29.97S
GORDONSVILLE*  FAIR      84  66  54 SW7       29.96S
WARRENTON*     FAIR      87  71  58 CALM      29.94F HX  92

$$

VAZ055>057-041600-
NORTH AND CENTRAL PIEDMONT

CITY           SKY/WX    TMP DP  RH WIND       PRES   REMARKS
FREDERICKSBRG* SUNNY     88  72  58 SW6       29.94S HX  94
STAFFORD*      SUNNY     85  67  54 SW3       29.98S

$$

NCZ024-NYZ072-PAZ021-071-VAZ022-071-041600-
OTHER REGIONAL OBSERVATIONS

CITY           SKY/WX    TMP DP  RH WIND       PRES   REMARKS
NEW YORK CITY  SUNNY     80  68  66 CALM      29.88S
PHILADELPHIA   MOSUNNY   84  65  52 W14       29.90S
PITTSBURGH     MOSUNNY   73  54  51 SW8       30.00R
ROANOKE        MOSUNNY   84  64  50 SW5       30.03S
RICHMOND       MOSUNNY   87  71  58 SW10      29.96F HX  93
RALEIGH        MOSUNNY   86  72  62 SW10      30.03R HX  92

$$

ANZ530>537-041600-
MARINE OBSERVATIONS

STATION/POSITION TIME  TEMP    WIND        PRES
                       AIR SEA DIR/SP/G
                 (UTC) (F)     (DEG/KT/KT) (MB)
THOMAS PT LIGHT  NOT AVBL
BALT KEY BRIDGE  1400   77     230/  9/ 10 1013.0R
COVE POINT       1400   80     250/ 11/ 15 1014.0F
LEWISETTA        1400   81 84  270/ 11/ 13 1013.7R
SOLOMONS ISLAND  1400      83                N/A
PINEY POINT      1400          270/  8/ 10   N/A

$$




USA.gov is the U.S. government's official web portal to all federal, state and local government web resources and services.